Location: Beutels
(47.8767°N, 9.8584°E)
Time: 22:08:42
(UTC+00:00)

Terra - Pass Details

Date: 19 May 2025
Orbit: 690 x 692 km, 98.0° (Epoch: 15 June)

Event Time Altitude Azimuth Distance (km) Brightness Sun altitude
Exits shadow 20:50:06 - 196° (SSW) 2,273 4.1 -14.6°
Reaches altitude 10° 20:50:28 10° 198° (SSW) 2,138 4.0 -14.6°
Maximum altitude 20:54:44 34° 264° (W) 1,130 3.1 -15.0°
Drops below altitude 10° 20:59:02 10° 330° (NNW) 2,153 5.7 -15.4°
Sets 21:01:28 0° 339° (NNW) 3,075 6.8 -15.7°
